| time (UTC) | temp C | wind direction | speed KPH | gust KPH | rain 1hr cm | rain 24hr cm | rain mn cm | humidity % | barometer mb |
| 20260507074433 | 11 | 345 | 0.0 | 3.2 | 0.00 | 0.00 | 0.00 | 91 | 1020.1 |
| 20260507073932 | 11 | 318 | 3.2 | 4.8 | 0.00 | 0.00 | 0.00 | 91 | 1019.8 |
| 20260507073428 | 11 | 354 | 3.2 | 4.8 | 0.00 | 0.00 | 0.00 | 91 | 1019.6 |
| 20260507072925 | 11 | 316 | 3.2 | 4.8 | 0.00 | 0.00 | 0.00 | 91 | 1019.8 |
| 20260507072422 | 11 | 296 | 1.6 | 3.2 | 0.00 | 0.00 | 0.00 | 91 | 1020.0 |
| 20260507071920 | 11 | 347 | 3.2 | 4.8 | 0.00 | 0.00 | 0.00 | 90 | 1019.8 |
| 20260507071416 | 11 | 284 | 4.8 | 8.0 | 0.00 | 0.00 | 0.00 | 90 | 1019.7 |
| 20260507070913 | 11 | 346 | 1.6 | 4.8 | 0.00 | 0.00 | 0.00 | 90 | 1019.8 |
| 20260507070410 | 11 | 324 | 0.0 | 4.8 | 0.00 | 0.00 | 0.00 | 90 | 1019.7 |
| 20260507065907 | 11 | 304 | 4.8 | 8.0 | 0.00 | 0.00 | 0.00 | 90 | 1019.7 |
| 20260507065404 | 11 | 335 | 1.6 | 8.0 | 0.00 | 0.00 | 0.00 | 90 | 1019.7 |
| 20260507064900 | 11 | 347 | 3.2 | 8.0 | 0.00 | 0.00 | 0.00 | 90 | 1019.7 |
| 20260507064359 | 11 | 298 | 4.8 | 8.0 | 0.00 | 0.00 | 0.00 | 90 | 1019.5 |
| 20260507063856 | 11 | 316 | 4.8 | 11.3 | 0.00 | 0.00 | 0.00 | 90 | 1019.7 |
| 20260507063353 | 11 | 336 | 4.8 | 9.7 | 0.00 | 0.00 | 0.00 | 90 | 1019.7 |
| 20260507062850 | 11 | 330 | 3.2 | 3.2 | 0.00 | 0.00 | 0.00 | 90 | 1019.5 |
| 20260507062347 | 11 | 323 | 4.8 | 4.8 | 0.00 | 0.00 | 0.00 | 90 | 1019.8 |
| 20260507061845 | 11 | 335 | 1.6 | 3.2 | 0.00 | 0.00 | 0.00 | 90 | 1019.7 |
| 20260507061343 | 12 | 300 | 4.8 | 9.7 | 0.00 | 0.00 | 0.00 | 90 | 1019.6 |
| 20260507060841 | 12 | 320 | 4.8 | 4.8 | 0.00 | 0.00 | 0.00 | 90 | 1019.8 |
| 20260507060337 | 12 | 303 | 4.8 | 11.3 | 0.00 | 0.00 | 0.00 | 90 | 1019.8 |
| 20260507055834 | 12 | 310 | 4.8 | 11.3 | 0.00 | 0.00 | 0.00 | 90 | 1019.8 |
| 20260507055329 | 12 | 326 | 3.2 | 9.7 | 0.00 | 0.00 | 0.00 | 89 | 1019.8 |
| 20260507054826 | 12 | 281 | 4.8 | 9.7 | 0.00 | 0.00 | 0.00 | 89 | 1019.6 |
| 20260507054322 | 12 | 351 | 8.0 | 11.3 | 0.00 | 0.00 | 0.00 | 89 | 1019.7 |
| 20260507053820 | 12 | 297 | 0.0 | 9.7 | 0.00 | 0.00 | 0.00 | 89 | 1019.5 |
| 20260507053317 | 12 | 298 | 0.0 | 8.0 | 0.00 | 0.00 | 0.00 | 88 | 1019.5 |
| 20260507052816 | 12 | 271 | 4.8 | 9.7 | 0.00 | 0.00 | 0.00 | 88 | 1019.4 |
| 20260507052312 | 12 | 291 | 8.0 | 9.7 | 0.00 | 0.00 | 0.00 | 88 | 1019.7 |
| 20260507051810 | 12 | 284 | 8.0 | 9.7 | 0.00 | 0.00 | 0.00 | 88 | 1019.5 |
| 20260507051307 | 12 | 310 | 6.4 | 9.7 | 0.00 | 0.00 | 0.00 | 88 | 1019.8 |
| 20260507050804 | 12 | 313 | 6.4 | 11.3 | 0.00 | 0.00 | 0.00 | 88 | 1019.4 |
| 20260507050300 | 12 | 293 | 4.8 | 8.0 | 0.00 | 0.00 | 0.00 | 87 | 1019.6 |
| 20260507045757 | 12 | 300 | 4.8 | 8.0 | 0.00 | 0.00 | 0.00 | 87 | 1019.7 |
| 20260507045253 | 12 | 326 | 3.2 | 14.5 | 0.00 | 0.00 | 0.00 | 87 | 1019.7 |
| 20260507044751 | 12 | 288 | 4.8 | 11.3 | 0.00 | 0.00 | 0.00 | 87 | 1019.6 |
| 20260507044247 | 12 | 299 | 8.0 | 11.3 | 0.00 | 0.00 | 0.00 | 87 | 1019.8 |
| 20260507043743 | 12 | 324 | 6.4 | 12.9 | 0.00 | 0.00 | 0.00 | 87 | 1019.5 |
| 20260507043240 | 12 | 347 | 3.2 | 8.0 | 0.00 | 0.00 | 0.00 | 86 | 1019.4 |
| 20260507042737 | 12 | 266 | 4.8 | 11.3 | 0.00 | 0.00 | 0.00 | 86 | 1019.4 |
| 20260507042232 | 12 | 307 | 4.8 | 4.8 | 0.00 | 0.00 | 0.00 | 86 | 1019.4 |
| 20260507041730 | 12 | 340 | 4.8 | 8.0 | 0.00 | 0.00 | 0.00 | 87 | 1019.5 |
| 20260507041226 | 12 | 334 | 4.8 | 9.7 | 0.00 | 0.00 | 0.00 | 87 | 1019.5 |
| 20260507040723 | 12 | 289 | 6.4 | 12.9 | 0.00 | 0.00 | 0.00 | 87 | 1019.5 |
| 20260507040219 | 12 | 258 | 9.7 | 22.5 | 0.00 | 0.00 | 0.00 | 87 | 1019.6 |
| 20260507035715 | 12 | 317 | 9.7 | 24.1 | 0.00 | 0.00 | 0.00 | 86 | 1019.5 |
| 20260507035211 | 12 | 317 | 8.0 | 17.7 | 0.00 | 0.00 | 0.00 | 86 | 1019.4 |
| 20260507034708 | 12 | 295 | 11.3 | 14.5 | 0.00 | 0.00 | 0.00 | 86 | 1019.4 |
| 20260507034205 | 12 | 278 | 6.4 | 16.1 | 0.00 | 0.00 | 0.00 | 86 | 1019.5 |
| 20260507033704 | 13 | 305 | 11.3 | 16.1 | 0.00 | 0.00 | 0.00 | 86 | 1019.5 |
| 20260507033201 | 13 | 275 | 11.3 | 20.9 | 0.00 | 0.00 | 0.00 | 85 | 1019.2 |
| 20260507032658 | 13 | 274 | 8.0 | 11.3 | 0.00 | 0.00 | 0.00 | 85 | 1019.5 |
| 20260507032153 | 13 | 0 | 4.8 | 9.7 | 0.00 | 0.00 | 0.00 | 85 | 1019.3 |
| 20260507031651 | 13 | 290 | 4.8 | 14.5 | 0.00 | 0.00 | 0.00 | 85 | 1019.3 |
| 20260507031147 | 13 | 287 | 3.2 | 8.0 | 0.00 | 0.00 | 0.00 | 85 | 1019.0 |
| 20260507030644 | 13 | 281 | 9.7 | 17.7 | 0.00 | 0.00 | 0.00 | 85 | 1018.9 |
| 20260507030142 | 13 | 313 | 4.8 | 9.7 | 0.00 | 0.00 | 0.00 | 85 | 1019.3 |
| 20260507025639 | 13 | 295 | 4.8 | 22.5 | 0.00 | 0.00 | 0.00 | 85 | 1019.2 |
| 20260507025136 | 13 | 349 | 8.0 | 14.5 | 0.00 | 0.00 | 0.00 | 85 | 1019.3 |
| 20260507024634 | 13 | 333 | 3.2 | 8.0 | 0.00 | 0.00 | 0.00 | 85 | 1019.4 |
| 20260507024131 | 13 | 283 | 4.8 | 17.7 | 0.00 | 0.00 | 0.00 | 85 | 1019.5 |
| 20260507023626 | 13 | 327 | 8.0 | 25.7 | 0.00 | 0.00 | 0.00 | 85 | 1019.3 |
| 20260507023124 | 15 | 327 | 11.3 | 12.9 | 0.00 | 0.00 | 0.00 | 84 | 1019.1 |
| 20260507022621 | 15 | 278 | 11.3 | 14.5 | 0.00 | 0.00 | 0.00 | 84 | 1019.3 |
| 20260507022116 | 15 | 321 | 11.3 | 22.5 | 0.00 | 0.00 | 0.00 | 84 | 1019.1 |
| 20260507021613 | 15 | 274 | 6.4 | 20.9 | 0.00 | 0.00 | 0.00 | 84 | 1018.8 |
| 20260507021108 | 15 | 258 | 14.5 | 25.7 | 0.00 | 0.00 | 0.00 | 84 | 1018.8 |
| 20260507020607 | 15 | 266 | 9.7 | 24.1 | 0.00 | 0.00 | 0.00 | 83 | 1018.8 |
| 20260507015602 | 16 | 313 | 4.8 | 24.1 | 0.00 | 0.00 | 0.00 | 82 | 1018.9 |
| 20260507015058 | 16 | 0 | 4.8 | 24.1 | 0.00 | 0.00 | 0.00 | 82 | 1018.6 |
| 20260507014555 | 16 | 265 | 9.7 | 22.5 | 0.00 | 0.00 | 0.00 | 80 | 1018.8 |
| 20260507014050 | 17 | 244 | 12.9 | 32.2 | 0.00 | 0.00 | 0.00 | 79 | 1018.7 |
| 20260507013548 | 17 | 294 | 8.0 | 25.7 | 0.00 | 0.00 | 0.00 | 79 | 1018.6 |
| 20260507013045 | 17 | 257 | 8.0 | 25.7 | 0.00 | 0.00 | 0.00 | 77 | 1018.7 |
| 20260507012542 | 17 | 264 | 14.5 | 24.1 | 0.00 | 0.00 | 0.00 | 76 | 1018.7 |
| 20260507012038 | 18 | 307 | 20.9 | 29.0 | 0.00 | 0.00 | 0.00 | 76 | 1018.9 |
| 20260507011536 | 18 | 275 | 14.5 | 22.5 | 0.00 | 0.00 | 0.00 | 76 | 1018.9 |
| 20260507011032 | 19 | 275 | 9.7 | 20.9 | 0.00 | 0.00 | 0.00 | 73 | 1018.7 |
| 20260507010526 | 20 | 29 | 3.2 | 17.7 | 0.00 | 0.00 | 0.00 | 72 | 1018.7 |
| 20260507010023 | 20 | 306 | 8.0 | 11.3 | 0.00 | 0.00 | 0.00 | 72 | 1018.6 |
| 20260507005520 | 20 | 262 | 8.0 | 9.7 | 0.00 | 0.00 | 0.00 | 70 | 1018.7 |
| 20260507005017 | 21 | 323 | 3.2 | 11.3 | 0.00 | 0.00 | 0.00 | 69 | 1018.7 |
| 20260507004514 | 20 | 291 | 11.3 | 12.9 | 0.00 | 0.00 | 0.00 | 71 | 1018.6 |
| 20260507004011 | 20 | 329 | 8.0 | 20.9 | 0.00 | 0.00 | 0.00 | 71 | 1018.6 |
| 20260507003506 | 20 | 307 | 1.6 | 12.9 | 0.00 | 0.00 | 0.00 | 71 | 1018.7 |
| 20260507003001 | 21 | 357 | 6.4 | 17.7 | 0.00 | 0.00 | 0.00 | 71 | 1018.6 |
| 20260507002458 | 21 | 288 | 4.8 | 14.5 | 0.00 | 0.00 | 0.00 | 70 | 1018.6 |
| 20260507001955 | 21 | 335 | 8.0 | 14.5 | 0.00 | 0.00 | 0.00 | 70 | 1018.8 |
| 20260507001451 | 21 | 286 | 14.5 | 17.7 | 0.00 | 0.00 | 0.00 | 71 | 1018.6 |
| 20260507000949 | 22 | 323 | 6.4 | 16.1 | 0.00 | 0.00 | 0.00 | 70 | 1018.4 |
| 20260507000445 | 23 | 282 | 9.7 | 17.7 | 0.00 | 0.00 | 0.00 | 67 | 1018.7 |
| 20260506235940 | 23 | 302 | 11.3 | 16.1 | 0.00 | 0.00 | 0.00 | 65 | 1018.7 |
| 20260506235438 | 21 | 302 | 8.0 | 14.5 | 0.00 | 0.00 | 0.00 | 68 | 1018.4 |
| 20260506234933 | 21 | 349 | 6.4 | 20.9 | 0.00 | 0.00 | 0.00 | 69 | 1018.6 |
| 20260506234431 | 21 | 301 | 12.9 | 20.9 | 0.00 | 0.00 | 0.00 | 68 | 1018.7 |
| 20260506233929 | 22 | 272 | 11.3 | 16.1 | 0.00 | 0.00 | 0.00 | 67 | 1018.8 |
| 20260506233425 | 23 | 194 | 8.0 | 20.9 | 0.00 | 0.00 | 0.00 | 66 | 1018.7 |
| 20260506232921 | 25 | 1 | 1.6 | 4.8 | 0.00 | 0.00 | 0.00 | 62 | 1018.6 |
| 20260506232418 | 22 | 312 | 4.8 | 16.1 | 0.00 | 0.00 | 0.00 | 67 | 1018.5 |
| 20260506231914 | 24 | 296 | 3.2 | 14.5 | 0.00 | 0.00 | 0.00 | 64 | 1018.6 |
| 20260506231411 | 23 | 316 | 8.0 | 14.5 | 0.00 | 0.00 | 0.00 | 68 | 1018.7 |
| 20260506230909 | 24 | 213 | 3.2 | 11.3 | 0.00 | 0.00 | 0.00 | 65 | 1018.7 |
| 20260506230405 | 25 | 238 | 11.3 | 14.5 | 0.00 | 0.00 | 0.00 | 65 | 1018.5 |
| 20260506225901 | 24 | 345 | 0.0 | 3.2 | 0.00 | 0.00 | 0.00 | 61 | 1018.9 |
| 20260506225359 | 22 | 103 | 8.0 | 9.7 | 0.00 | 0.00 | 0.00 | 67 | 1018.8 |
| 20260506224855 | 21 | 65 | 3.2 | 8.0 | 0.00 | 0.00 | 0.00 | 68 | 1018.9 |
| 20260506224353 | 22 | 29 | 1.6 | 8.0 | 0.00 | 0.00 | 0.00 | 65 | 1018.9 |
| 20260506223849 | 22 | 320 | 0.0 | 0.0 | 0.00 | 0.00 | 0.00 | 65 | 1018.9 |
| 20260506223344 | 23 | 95 | 1.6 | 9.7 | 0.00 | 0.00 | 0.00 | 65 | 1019.0 |
| 20260506222842 | 22 | 40 | 6.4 | 8.0 | 0.00 | 0.00 | 0.00 | 65 | 1018.8 |
| 20260506222337 | 22 | 207 | 9.7 | 11.3 | 0.00 | 0.00 | 0.00 | 66 | 1018.8 |
| 20260506221835 | 22 | 136 | 8.0 | 11.3 | 0.00 | 0.00 | 0.00 | 66 | 1019.1 |
| 20260506221333 | 22 | 78 | 0.0 | 8.0 | 0.00 | 0.00 | 0.00 | 64 | 1019.1 |
| 20260506220830 | 22 | 10 | 0.0 | 4.8 | 0.00 | 0.00 | 0.00 | 64 | 1019.3 |
| 20260506220325 | 22 | 169 | 8.0 | 11.3 | 0.00 | 0.00 | 0.00 | 65 | 1019.4 |
| 20260506215822 | 22 | 121 | 4.8 | 9.7 | 0.00 | 0.00 | 0.00 | 63 | 1019.3 |
| 20260506215318 | 23 | 74 | 3.2 | 8.0 | 0.00 | 0.00 | 0.00 | 62 | 1019.4 |
| 20260506214814 | 23 | 144 | 6.4 | 14.5 | 0.00 | 0.00 | 0.00 | 64 | 1019.4 |
| 20260506214311 | 23 | 39 | 3.2 | 8.0 | 0.00 | 0.00 | 0.00 | 62 | 1019.6 |
| 20260506213810 | 22 | 93 | 1.6 | 16.1 | 0.00 | 0.00 | 0.00 | 65 | 1019.4 |
| 20260506213306 | 22 | 118 | 6.4 | 12.9 | 0.00 | 0.00 | 0.00 | 65 | 1019.7 |
| 20260506212804 | 23 | 151 | 9.7 | 16.1 | 0.00 | 0.00 | 0.00 | 64 | 1019.7 |
| 20260506212259 | 23 | 177 | 9.7 | 12.9 | 0.00 | 0.00 | 0.00 | 63 | 1019.6 |
| 20260506211754 | 22 | 229 | 8.0 | 11.3 | 0.00 | 0.00 | 0.00 | 64 | 1019.7 |
| 20260506211251 | 22 | 138 | 3.2 | 9.7 | 0.00 | 0.00 | 0.00 | 64 | 1019.6 |
| 20260506210748 | 21 | 118 | 6.4 | 14.5 | 0.00 | 0.00 | 0.00 | 66 | 1019.7 |
| 20260506210245 | 22 | 148 | 3.2 | 11.3 | 0.00 | 0.00 | 0.00 | 67 | 1019.6 |
| 20260506205742 | 22 | 142 | 4.8 | 9.7 | 0.00 | 0.00 | 0.00 | 65 | 1019.5 |
| 20260506205238 | 21 | 63 | 6.4 | 12.9 | 0.00 | 0.00 | 0.00 | 68 | 1019.8 |
| 20260506204735 | 21 | 148 | 0.0 | 16.1 | 0.00 | 0.00 | 0.00 | 68 | 1019.8 |
| 20260506204232 | 22 | 164 | 4.8 | 12.9 | 0.00 | 0.00 | 0.00 | 68 | 1019.8 |
| 20260506203730 | 21 | 149 | 4.8 | 12.9 | 0.00 | 0.00 | 0.00 | 69 | 1019.9 |
| 20260506203227 | 22 | 100 | 4.8 | 8.0 | 0.00 | 0.00 | 0.00 | 68 | 1020.0 |
| 20260506202725 | 22 | 124 | 3.2 | 14.5 | 0.00 | 0.00 | 0.00 | 67 | 1020.0 |
| 20260506202221 | 21 | 178 | 6.4 | 16.1 | 0.00 | 0.00 | 0.00 | 70 | 1020.1 |
| 20260506201718 | 20 | 168 | 4.8 | 12.9 | 0.00 | 0.00 | 0.00 | 71 | 1020.1 |
| 20260506201214 | 20 | 148 | 4.8 | 11.3 | 0.00 | 0.00 | 0.00 | 72 | 1020.2 |
| 20260506200711 | 22 | 118 | 1.6 | 9.7 | 0.00 | 0.00 | 0.00 | 68 | 1020.1 |
| 20260506200208 | 21 | 107 | 4.8 | 9.7 | 0.00 | 0.00 | 0.00 | 71 | 1020.2 |
| 20260506195704 | 21 | 82 | 4.8 | 11.3 | 0.00 | 0.00 | 0.00 | 71 | 1020.1 |
| 20260506195201 | 22 | 118 | 4.8 | 8.0 | 0.00 | 0.00 | 0.00 | 69 | 1020.3 |
| 20260506194658 | 21 | 143 | 6.4 | 14.5 | 0.00 | 0.00 | 0.00 | 71 | 1020.2 |
| 20260506194154 | 20 | 134 | 12.9 | 20.9 | 0.00 | 0.00 | 0.00 | 72 | 1020.4 |
| 20260506193652 | 20 | 133 | 4.8 | 11.3 | 0.00 | 0.00 | 0.00 | 74 | 1020.5 |
| 20260506193149 | 21 | 96 | 4.8 | 11.3 | 0.00 | 0.00 | 0.00 | 73 | 1020.5 |
| 20260506192646 | 20 | 157 | 6.4 | 9.7 | 0.00 | 0.00 | 0.00 | 72 | 1020.4 |
| 20260506192142 | 20 | 226 | 6.4 | 11.3 | 0.00 | 0.00 | 0.00 | 72 | 1020.6 |
| 20260506191639 | 20 | 164 | 3.2 | 11.3 | 0.00 | 0.00 | 0.00 | 71 | 1020.8 |
| 20260506191135 | 21 | 9 | 4.8 | 11.3 | 0.00 | 0.00 | 0.00 | 71 | 1020.8 |
| 20260506190633 | 20 | 176 | 4.8 | 12.9 | 0.00 | 0.00 | 0.00 | 73 | 1020.8 |
| 20260506190129 | 20 | 39 | 1.6 | 11.3 | 0.00 | 0.00 | 0.00 | 73 | 1021.1 |
| 20260506185626 | 21 | 133 | 4.8 | 9.7 | 0.00 | 0.00 | 0.00 | 70 | 1020.9 |
| 20260506185122 | 20 | 177 | 4.8 | 8.0 | 0.00 | 0.00 | 0.00 | 71 | 1020.9 |
| 20260506184620 | 21 | 105 | 6.4 | 9.7 | 0.00 | 0.00 | 0.00 | 70 | 1020.9 |
| 20260506184117 | 21 | 343 | 0.0 | 9.7 | 0.00 | 0.00 | 0.00 | 71 | 1020.9 |
| 20260506183614 | 20 | 157 | 3.2 | 8.0 | 0.00 | 0.00 | 0.00 | 72 | 1020.8 |
| 20260506183110 | 19 | 45 | 0.0 | 8.0 | 0.00 | 0.00 | 0.00 | 73 | 1021.1 |
| 20260506182608 | 20 | 190 | 8.0 | 9.7 | 0.00 | 0.00 | 0.00 | 73 | 1021.0 |
| 20260506182104 | 19 | 117 | 4.8 | 9.7 | 0.00 | 0.00 | 0.00 | 73 | 1021.1 |
| 20260506181602 | 18 | 109 | 9.7 | 11.3 | 0.00 | 0.00 | 0.00 | 74 | 1021.0 |
| 20260506181059 | 18 | 60 | 1.6 | 9.7 | 0.00 | 0.00 | 0.00 | 74 | 1021.0 |
| 20260506180555 | 17 | 300 | 0.0 | 9.7 | 0.00 | 0.00 | 0.00 | 76 | 1020.9 |
| 20260506180052 | 18 | 28 | 3.2 | 8.0 | 0.00 | 0.00 | 0.00 | 76 | 1021.0 |
| 20260506175548 | 18 | 117 | 3.2 | 4.8 | 0.00 | 0.00 | 0.00 | 73 | 1020.7 |
| 20260506175045 | 18 | 59 | 0.0 | 8.0 | 0.00 | 0.00 | 0.00 | 74 | 1020.9 |
| 20260506174544 | 18 | 47 | 4.8 | 11.3 | 0.00 | 0.00 | 0.00 | 75 | 1021.1 |
| 20260506174039 | 18 | 159 | 6.4 | 9.7 | 0.00 | 0.00 | 0.00 | 75 | 1021.2 |
| 20260506173537 | 17 | 72 | 1.6 | 4.8 | 0.00 | 0.00 | 0.00 | 76 | 1021.1 |
| 20260506173034 | 18 | 71 | 1.6 | 4.8 | 0.00 | 0.00 | 0.00 | 77 | 1021.0 |
| 20260506172531 | 17 | 39 | 3.2 | 11.3 | 0.00 | 0.00 | 0.00 | 78 | 1021.0 |
| 20260506172027 | 17 | 35 | 0.0 | 9.7 | 0.00 | 0.00 | 0.00 | 78 | 1020.9 |
| 20260506171525 | 17 | 64 | 1.6 | 8.0 | 0.00 | 0.00 | 0.00 | 78 | 1021.1 |
| 20260506171022 | 17 | 131 | 6.4 | 9.7 | 0.00 | 0.00 | 0.00 | 78 | 1021.2 |
| 20260506170520 | 17 | 12 | 3.2 | 9.7 | 0.00 | 0.00 | 0.00 | 76 | 1021.1 |
| 20260506170018 | 17 | 121 | 1.6 | 3.2 | 0.00 | 0.00 | 0.00 | 77 | 1021.0 |
| 20260506165516 | 17 | 143 | 4.8 | 8.0 | 0.00 | 0.00 | 0.00 | 79 | 1021.1 |
| 20260506165011 | 16 | 27 | 3.2 | 8.0 | 0.00 | 0.00 | 0.00 | 79 | 1021.1 |
| 20260506164508 | 17 | 81 | 3.2 | 3.2 | 0.00 | 0.00 | 0.00 | 77 | 1021.1 |
| 20260506164006 | 16 | 107 | 1.6 | 8.0 | 0.00 | 0.00 | 0.00 | 78 | 1021.2 |
| 20260506163501 | 17 | 224 | 4.8 | 4.8 | 0.00 | 0.00 | 0.00 | 77 | 1021.2 |
| 20260506162956 | 17 | 142 | 0.0 | 1.6 | 0.00 | 0.00 | 0.00 | 77 | 1021.1 |
| 20260506162454 | 16 | 350 | 0.0 | 1.6 | 0.00 | 0.00 | 0.00 | 78 | 1021.1 |
| 20260506161951 | 16 | 357 | 0.0 | 0.0 | 0.00 | 0.00 | 0.00 | 78 | 1021.3 |
| 20260506161449 | 16 | 33 | 0.0 | 4.8 | 0.00 | 0.00 | 0.00 | 79 | 1021.1 |
| 20260506160946 | 15 | 92 | 1.6 | 3.2 | 0.00 | 0.00 | 0.00 | 80 | 1021.2 |
| 20260506160443 | 16 | 152 | 4.8 | 4.8 | 0.00 | 0.00 | 0.00 | 80 | 1021.1 |
| 20260506155940 | 16 | 13 | 0.0 | 1.6 | 0.00 | 0.00 | 0.00 | 79 | 1021.0 |
| 20260506155438 | 16 | 13 | 0.0 | 0.0 | 0.00 | 0.00 | 0.00 | 79 | 1021.2 |
| 20260506153605 | 15 | 0 | 0.0 | 1.6 | 0.00 | 0.00 | 0.00 | 82 | 1021.1 |
| 20260506153102 | 15 | 15 | 0.0 | 0.0 | 0.00 | 0.00 | 0.00 | 82 | 1020.9 |
| 20260506152559 | 15 | 6 | 0.0 | 1.6 | 0.00 | 0.00 | 0.00 | 84 | 1021.2 |
| 20260506152057 | 15 | 8 | 0.0 | 1.6 | 0.00 | 0.00 | 0.00 | 84 | 1021.2 |
| 20260506151555 | 14 | 286 | 6.4 | 8.0 | 0.00 | 0.00 | 0.00 | 84 | 1020.9 |
| 20260506151052 | 13 | 347 | 4.8 | 4.8 | 0.00 | 0.00 | 0.00 | 85 | 1021.1 |
| 20260506150548 | 13 | 327 | 0.0 | 8.0 | 0.00 | 0.00 | 0.00 | 86 | 1021.1 |
| 20260506150045 | 13 | 345 | 0.0 | 3.2 | 0.00 | 0.00 | 0.00 | 86 | 1020.8 |
| 20260506145542 | 13 | 351 | 1.6 | 8.0 | 0.00 | 0.00 | 0.00 | 86 | 1021.0 |
| 20260506145039 | 13 | 354 | 1.6 | 4.8 | 0.00 | 0.00 | 0.00 | 86 | 1020.9 |
| 20260506144536 | 13 | 330 | 1.6 | 4.8 | 0.00 | 0.00 | 0.00 | 86 | 1020.8 |
| 20260506144033 | 13 | 351 | 0.0 | 1.6 | 0.00 | 0.00 | 0.00 | 87 | 1021.1 |
| 20260506143531 | 13 | 337 | 3.2 | 3.2 | 0.00 | 0.00 | 0.00 | 86 | 1021.0 |
| 20260506143029 | 12 | 311 | 3.2 | 9.7 | 0.00 | 0.00 | 0.00 | 86 | 1020.7 |
| 20260506142526 | 12 | 279 | 4.8 | 8.0 | 0.00 | 0.00 | 0.00 | 86 | 1020.7 |
| 20260506142024 | 12 | 19 | 3.2 | 4.8 | 0.00 | 0.00 | 0.00 | 86 | 1020.9 |
| 20260506141522 | 12 | 352 | 1.6 | 3.2 | 0.00 | 0.00 | 0.00 | 87 | 1020.8 |
| 20260506141020 | 12 | 354 | 0.0 | 3.2 | 0.00 | 0.00 | 0.00 | 87 | 1020.7 |
| 20260506140517 | 12 | 312 | 1.6 | 3.2 | 0.00 | 0.00 | 0.00 | 87 | 1020.5 |
| 20260506140015 | 12 | 299 | 4.8 | 12.9 | 0.00 | 0.00 | 0.00 | 87 | 1020.7 |
| 20260506135511 | 12 | 331 | 1.6 | 3.2 | 0.00 | 0.00 | 0.00 | 87 | 1020.4 |
| 20260506135007 | 12 | 351 | 0.0 | 3.2 | 0.00 | 0.00 | 0.00 | 87 | 1020.6 |
| 20260506134503 | 12 | 347 | 1.6 | 3.2 | 0.00 | 0.00 | 0.00 | 87 | 1020.5 |
| 20260506134000 | 12 | 309 | 4.8 | 4.8 | 0.00 | 0.00 | 0.00 | 87 | 1020.5 |
| 20260506133457 | 12 | 337 | 1.6 | 4.8 | 0.00 | 0.00 | 0.00 | 87 | 1020.5 |
| 20260506132954 | 12 | 327 | 6.4 | 8.0 | 0.00 | 0.00 | 0.00 | 87 | 1020.5 |
| 20260506132451 | 12 | 280 | 6.4 | 9.7 | 0.00 | 0.00 | 0.00 | 87 | 1020.4 |
| 20260506131948 | 12 | 348 | 0.0 | 3.2 | 0.00 | 0.00 | 0.00 | 87 | 1020.5 |
| 20260506131445 | 12 | 283 | 4.8 | 4.8 | 0.00 | 0.00 | 0.00 | 87 | 1020.3 |
| 20260506130942 | 12 | 348 | 0.0 | 3.2 | 0.00 | 0.00 | 0.00 | 87 | 1020.6 |
| 20260506130438 | 12 | 349 | 1.6 | 3.2 | 0.00 | 0.00 | 0.00 | 87 | 1020.3 |
| 20260506125936 | 12 | 344 | 1.6 | 9.7 | 0.00 | 0.00 | 0.00 | 87 | 1020.3 |
| 20260506125434 | 12 | 320 | 1.6 | 4.8 | 0.00 | 0.00 | 0.00 | 87 | 1020.3 |
| 20260506124932 | 12 | 358 | 1.6 | 3.2 | 0.00 | 0.00 | 0.00 | 87 | 1020.4 |
| 20260506124429 | 12 | 310 | 3.2 | 3.2 | 0.00 | 0.00 | 0.00 | 87 | 1020.2 |
| 20260506123927 | 12 | 336 | 1.6 | 3.2 | 0.00 | 0.00 | 0.00 | 87 | 1020.1 |
| 20260506123425 | 12 | 342 | 3.2 | 4.8 | 0.00 | 0.00 | 0.00 | 86 | 1020.3 |
| 20260506122922 | 12 | 275 | 6.4 | 9.7 | 0.00 | 0.00 | 0.00 | 86 | 1020.3 |
| 20260506122419 | 12 | 309 | 4.8 | 9.7 | 0.00 | 0.00 | 0.00 | 86 | 1020.1 |
| 20260506121918 | 12 | 289 | 8.0 | 9.7 | 0.00 | 0.00 | 0.00 | 86 | 1020.2 |
| 20260506121414 | 12 | 318 | 1.6 | 3.2 | 0.00 | 0.00 | 0.00 | 86 | 1020.2 |
| 20260506120911 | 12 | 355 | 1.6 | 3.2 | 0.00 | 0.00 | 0.00 | 86 | 1020.0 |
| 20260506120409 | 12 | 289 | 8.0 | 9.7 | 0.00 | 0.00 | 0.00 | 86 | 1020.1 |
| 20260506115906 | 12 | 284 | 3.2 | 4.8 | 0.00 | 0.00 | 0.00 | 86 | 1020.0 |
| 20260506115404 | 12 | 8 | 1.6 | 3.2 | 0.00 | 0.00 | 0.00 | 86 | 1020.0 |
| 20260506114902 | 12 | 328 | 4.8 | 11.3 | 0.00 | 0.00 | 0.00 | 86 | 1019.9 |
| 20260506114359 | 12 | 338 | 3.2 | 9.7 | 0.00 | 0.00 | 0.00 | 86 | 1020.0 |
| 20260506113858 | 12 | 355 | 4.8 | 4.8 | 0.00 | 0.00 | 0.00 | 86 | 1019.9 |
| 20260506113355 | 12 | 336 | 3.2 | 11.3 | 0.00 | 0.00 | 0.00 | 86 | 1019.9 |
| 20260506112851 | 12 | 318 | 1.6 | 4.8 | 0.00 | 0.00 | 0.00 | 86 | 1019.9 |
| 20260506112348 | 12 | 358 | 1.6 | 9.7 | 0.00 | 0.00 | 0.00 | 86 | 1019.8 |
| 20260506111845 | 12 | 294 | 4.8 | 4.8 | 0.00 | 0.00 | 0.00 | 86 | 1019.7 |
| 20260506111344 | 12 | 306 | 4.8 | 9.7 | 0.00 | 0.00 | 0.00 | 86 | 1019.7 |
| 20260506110841 | 12 | 294 | 6.4 | 11.3 | 0.00 | 0.00 | 0.00 | 86 | 1019.7 |
| 20260506110338 | 12 | 322 | 4.8 | 4.8 | 0.00 | 0.00 | 0.00 | 86 | 1019.5 |
| 20260506105835 | 12 | 313 | 3.2 | 3.2 | 0.00 | 0.00 | 0.00 | 86 | 1019.7 |
| 20260506105331 | 12 | 357 | 1.6 | 3.2 | 0.00 | 0.00 | 0.00 | 86 | 1019.8 |
| 20260506104829 | 12 | 350 | 1.6 | 1.6 | 0.00 | 0.00 | 0.00 | 86 | 1019.5 |
| 20260506104326 | 12 | 354 | 0.0 | 1.6 | 0.00 | 0.00 | 0.00 | 86 | 1019.6 |
| 20260506103824 | 12 | 359 | 0.0 | 1.6 | 0.00 | 0.00 | 0.00 | 86 | 1019.5 |
| 20260506103321 | 12 | 321 | 1.6 | 8.0 | 0.00 | 0.00 | 0.00 | 86 | 1019.7 |
| 20260506102819 | 12 | 299 | 4.8 | 4.8 | 0.00 | 0.00 | 0.00 | 86 | 1019.6 |
| 20260506102316 | 12 | 303 | 4.8 | 4.8 | 0.00 | 0.00 | 0.00 | 86 | 1019.4 |
| 20260506101814 | 12 | 0 | 0.0 | 8.0 | 0.00 | 0.00 | 0.00 | 86 | 1019.6 |
| 20260506101309 | 12 | 0 | 1.6 | 9.7 | 0.00 | 0.00 | 0.00 | 86 | 1019.6 |
| 20260506100808 | 12 | 354 | 3.2 | 3.2 | 0.00 | 0.00 | 0.00 | 86 | 1019.5 |
| 20260506100306 | 12 | 7 | 1.6 | 4.8 | 0.00 | 0.00 | 0.00 | 86 | 1019.4 |
| 20260506095804 | 12 | 343 | 1.6 | 8.0 | 0.00 | 0.00 | 0.00 | 86 | 1019.5 |
| 20260506095300 | 12 | 351 | 1.6 | 4.8 | 0.00 | 0.00 | 0.00 | 86 | 1019.5 |
| 20260506094757 | 12 | 311 | 4.8 | 4.8 | 0.00 | 0.00 | 0.00 | 86 | 1019.5 |
| 20260506094255 | 12 | 340 | 1.6 | 1.6 | 0.00 | 0.00 | 0.00 | 86 | 1019.6 |
| 20260506093754 | 12 | 343 | 1.6 | 1.6 | 0.00 | 0.00 | 0.00 | 86 | 1019.5 |
| 20260506093250 | 12 | 352 | 0.0 | 3.2 | 0.00 | 0.00 | 0.00 | 86 | 1019.6 |
| 20260506092748 | 12 | 357 | 0.0 | 1.6 | 0.00 | 0.00 | 0.00 | 86 | 1019.6 |
| 20260506092246 | 12 | 358 | 0.0 | 0.0 | 0.00 | 0.00 | 0.00 | 86 | 1019.7 |
| 20260506091743 | 12 | 356 | 0.0 | 3.2 | 0.00 | 0.00 | 0.00 | 86 | 1019.5 |
| 20260506091240 | 12 | 354 | 0.0 | 1.6 | 0.00 | 0.00 | 0.00 | 86 | 1019.5 |
| 20260506090738 | 12 | 336 | 1.6 | 3.2 | 0.00 | 0.00 | 0.00 | 86 | 1019.6 |
| 20260506090235 | 12 | 312 | 1.6 | 3.2 | 0.00 | 0.00 | 0.00 | 86 | 1019.3 |
| 20260506085732 | 12 | 309 | 1.6 | 3.2 | 0.00 | 0.00 | 0.00 | 86 | 1019.3 |
| 20260506085228 | 12 | 354 | 0.0 | 8.0 | 0.00 | 0.00 | 0.00 | 86 | 1019.7 |
| 20260506084725 | 12 | 354 | 0.0 | 8.0 | 0.00 | 0.00 | 0.00 | 86 | 1019.7 |
| 20260506084221 | 12 | 316 | 3.2 | 8.0 | 0.00 | 0.00 | 0.00 | 86 | 1019.3 |
| 20260506083718 | 12 | 8 | 1.6 | 4.8 | 0.00 | 0.00 | 0.00 | 86 | 1019.5 |
| 20260506083216 | 12 | 288 | 3.2 | 4.8 | 0.00 | 0.00 | 0.00 | 86 | 1019.6 |
| 20260506082713 | 12 | 292 | 4.8 | 8.0 | 0.00 | 0.00 | 0.00 | 86 | 1019.6 |
| 20260506082208 | 12 | 328 | 0.0 | 1.6 | 0.00 | 0.00 | 0.00 | 86 | 1019.3 |
| 20260506081706 | 12 | 324 | 3.2 | 4.8 | 0.00 | 0.00 | 0.00 | 86 | 1019.6 |
| 20260506081204 | 12 | 339 | 1.6 | 4.8 | 0.00 | 0.00 | 0.00 | 86 | 1019.3 |
| 20260506080701 | 12 | 338 | 1.6 | 4.8 | 0.00 | 0.00 | 0.00 | 86 | 1019.3 |
| 20260506080158 | 12 | 291 | 4.8 | 8.0 | 0.00 | 0.00 | 0.00 | 86 | 1019.4 |